User: anonymous   Login
Location: Oshawa
(43.9000°N, 78.8670°W)
Time: 19:49:32
(UTC-04:00)
Language:

CZ-4C R/B - Orbit

View from above orbital plane
View from above orbital plane
View from above satellite
View from above satellite

Ground track
Ground track

The orbit data is extracted from the following two-line orbital elements,

1 32290U 07055B   16152.50485437  .00003559  00000-0  10736-3 0  9996
2 32290  97.5255 245.8527 0072186  51.9530 308.8196 15.32413122473329
Epoch (UTC): 31 May 2016 12:06:59
Eccentricity: 0.0072186
inclination: 97.5255°
perigee height: 419 km
apogee height: 518 km
right ascension of ascending node: 245.8527°
argument of perigee: 51.9530°
revolutions per day: 15.32413122
mean anomaly at epoch: 308.8196°
orbit number at epoch: 47332

The dashed part of the orbit path shows where the satellite is in the earth's shadow,  

DLR